Regional Weather Roundup
Issued by NWS

Home | Current Version | Previous Version | Graphics & Text | Print | Product List | Glossary On
Versions: 1 2 3 4 5 6 7 8 9 10 11 12 13 14 15 16 17 18 19 20 21 22 23 24 25 26 27 28 29 30 31 32 33 34 35 36 37 38 39 40 41 42 43 44 45 46 47 48 49 50
171
ASUS43 KMKX 061900
RWRWI

WISCONSIN REGIONAL WEATHER ROUNDUP
NATIONAL WEATHER SERVICE MILWAUKEE/SULLIVAN WI
200 PM CDT FRI MAY 06 2016

NOTE: "FAIR" INDICATES FEW OR NO CLOUDS BELOW 12,000 FEET WITH NO
SIGNIFICANT WEATHER AND/OR OBSTRUCTIONS TO VISIBILITY.

WIZ001-002-006>008-014>016-023>028-062000-
NORTHWEST WISCONSIN

CITY           SKY/WX    TMP DP  RH WIND       PRES   REMARKS
SUPERIOR ARPT  SUNNY     92  46  20 SW20G25   29.65F HX  88
ASHLAND        SUNNY     93  39  15 SW15G28   29.67F HX  89
HAYWARD        SUNNY     88  41  19 SW13G22   29.74F HX  84
SIREN          SUNNY     87  47  25 SW12      29.75F HX  84
CUMBERLAND     SUNNY     84  41  21 W17G24    29.78F HX  81
RICE LAKE      SUNNY     87  39  18 W13G20    29.79F HX  84
CHETEK         SUNNY     86  50  28 W12       29.77F HX  84
LADYSMITH      SUNNY     86  42  21 SW17      29.78F HX  83
EAU CLAIRE     NOT AVBL
MENOMONIE      NOT AVBL
NEW RICHMOND   SUNNY     84  47  28 SW16G23   29.79F HX  82
OSCEOLA        SUNNY     84  50  30 SW13G22   29.80F HX  82
$$

WIZ003>005-009-010-017-018-062000-
NORTH CENTRAL WISCONSIN

CITY           SKY/WX    TMP DP  RH WIND       PRES   REMARKS
MANITOWISH WTR SUNNY     86  37  17 W16       29.75F HX  83
ARBOR VITAE    SUNNY     86  32  14 SW13G22   29.76F HX  82
WOODRUFF       SUNNY     86  32  14 SW13G22   29.76F HX  82
RHINELANDER    SUNNY     88  37  16 W16G23    29.77F HX  84
EAGLE RIVER    SUNNY     86  31  13 W12G21    29.76F HX  83
LAND O LAKES   SUNNY     87  30  13 SW9G20    29.76F HX  83
PHILLIPS       SUNNY     85  40  20 SW10G16   29.77F HX  82
TOMAHAWK       SUNNY     86  35  16 W15G25    29.79F HX  82
MEDFORD        SUNNY     82  47  29 W14G20    29.81S HX  80
MERRILL        SUNNY     86  43  22 W16       29.78F HX  83
$$

WIZ029-030-035-036-043>047-062000-
CENTRAL WISCONSIN

CITY           SKY/WX    TMP DP  RH WIND       PRES   REMARKS
WAUSAU         SUNNY     86  44  23 W14       29.78F HX  83
MOSINEE        SUNNY     84  43  23 W12G20    29.82F HX  82
MARSHFIELD     SUNNY     87  43  21 W17       29.79F HX  84
STEVENS POINT  SUNNY     80  45  29 W9        29.82F
WAUPACA        SUNNY     83  41  22 W3        29.81F HX  81
WAUTOMA        SUNNY     84  45  25 SW5G16    29.82F HX  82
WISC RAPIDS    SUNNY     88  38  17 W13G18    29.81F HX  84
CAMP DOUGLAS   NOT AVBL
$$

WIZ011>013-019>022-031-037>040-048>050-062000-
NORTHEAST WISCONSIN

CITY           SKY/WX    TMP DP  RH WIND       PRES   REMARKS
ANTIGO         SUNNY     82  46  27 CALM      29.81F HX  80
SHAWANO        SUNNY     83  44  25 SW6       29.79F HX  81
OCONTO         SUNNY     74  49  41 S13       29.78F
STURGEON BAY   SUNNY     66  46  48 S15       29.83F
GREEN BAY      SUNNY     81  48  31 W8        29.79F HX  80
MANITOWOC      NOT AVBL
APPLETON       MOSUNNY   79  41  25 W13       29.80F
CLINTONVILLE   SUNNY     81  43  26 SW5       29.80F
OSHKOSH        SUNNY     80  47  31 W8        29.81F
$$

WIZ032>034-041-042-053>061-062000-
SOUTHWEST WISCONSIN

CITY           SKY/WX    TMP DP  RH WIND       PRES   REMARKS
LA CROSSE      SUNNY     90  43  19 W12       29.80F HX  86
SPARTA         SUNNY     84  46  26 W13       29.84F HX  82
VIROQUA        SUNNY     84  45  25 W16       29.87F HX  81
BOSCOBEL       SUNNY     87  47  24 VRB7      29.85F HX  84
PRAIRIE DU CHI SUNNY     85  42  21 W12       29.86F HX  82
PLATTEVILLE    SUNNY     80  47  32 SW9G17    29.90F
$$

WIZ056-057-062-063-064-067-068-062000-
SOUTH CENTRAL WISCONSIN

CITY           SKY/WX    TMP DP  RH WIND       PRES   REMARKS
REEDSBURG      SUNNY     81  51  35 W12       29.85F HX  80
BARABOO/DELLS  SUNNY     81  42  25 SW9       29.85F HX  80
LONE ROCK      NOT AVBL
MINERAL POINT  SUNNY     81  43  26 W10       29.89F
MADISON        MOSUNNY   81  46  29 W9        29.85F HX  80
MIDDLETON      SUNNY     80  49  33 W9        29.87F HX  80
WATERTOWN      SUNNY     79  49  35 W7        29.85F
MONROE         SUNNY     77  46  33 SW14      29.90F
JANESVILLE     MOSUNNY   82  45  26 W12       29.87F HX  80
$$

WIZ051-052-058>065-066-070>072-062000-
SOUTHEAST WISCONSIN

CITY           SKY/WX    TMP DP  RH WIND       PRES   REMARKS
MILWAUKEE      MOSUNNY   80  46  30 SW9       29.84F
WAUKESHA       NOT AVBL
MILWAUKEE/TIMM NOT AVBL
RACINE         SUNNY     72  44  36 S13       29.87F
BURLINGTON     SUNNY     78  44  29 SW8       29.86F
KENOSHA        SUNNY     78  49  35 S14       29.86F
FOND DU LAC    SUNNY     82  45  27 NW8       29.82F HX  80
SHEBOYGAN      SUNNY     76  49  38 SE13      29.82F
WEST BEND      SUNNY     79  43  27 W7G16     29.84F
JUNEAU         SUNNY     79  46  30 W8        29.85F
$$

LSZ147-162-062000-
LAKE SUPERIOR

STATION/POSITION TIME  TEMP    WIND        PRES    WAVE
                       AIR SEA DIR/SP/G            HT/PER
                 (UTC) (F)     (DEG/KT/KT) (MB)    (FT/S)
W MID LAKE BUOY  1750   47 37  190/  8/  8 1005.1F   0
DEVILS ISLAND    1800   75     230/ 18/ 20 1004.1F
SAXON HARBOR     1800   89     240/  7/ 23 1005.1
$$

LMZ867-665-643>646-062000-
LAKE MICHIGAN

STATION/POSITION TIME  TEMP    WIND        PRES    WAVE
                       AIR SEA DIR/SP/G            HT/PER
                 (UTC) (F)     (DEG/KT/KT) (MB)    (FT/S)
CHAMBERS ISLAND  1800   69     180/  8/ 12 1009.5F
N MID LAKE BUOY  1750   44 39  180/ 14/ 16 1010.4F   2/ 4
NORTHPORT PIER   1800   51     150/ 11/ 14 1009.8F
SISTER BAY       1819   69     200/ 15/ 19   N/A
ALGOMA LAKESHORE 1815          200/ 15/ 16   N/A
KEWAUNEE LAKESHO 1800   46     170/ 14/ 16 1009.8F
SHEBOYGAN LAKESH 1800   50     170/ 20/ 21 1010.8F
PORT WASHINGTON  1840   56     180/  7/ 11 1011.5F
MILWAUKEE LAKESH 1810   50     140/ 12/ 13   N/A
S MID LAKE BUOY  1750   44 41  160/ 10/ 10 1013.2F   0
KENOSHA   LAKESH 1800   53     180/ 10/ 16 1011.9F
$$

TC  - TEMPERATURE IN CELSIUS
VSB - VISIBILITY IN STATUTE MILES
WCI - WIND CHILL INDEX
HX  - HEAT INDEX





USA.gov is the U.S. government's official web portal to all federal, state and local government web resources and services.